Weather reports worldwide

Advertisment
Marham, United Kingdom (3482): temperature & dewpoint: 23.05.2020 14:00:00 - 29.05.2020 14:00:00 (BST)Marham, United Kingdom (3482): temperature -20cm & temperature -100cm: 23.05.2020 14:00:00 - 29.05.2020 14:00:00 (BST)Marham, United Kingdom (3482): wind speed & gusts: 23.05.2020 14:00:00 - 29.05.2020 14:00:00 (BST)Marham, United Kingdom (3482): wind direction: 23.05.2020 14:00:00 - 29.05.2020 14:00:00 (BST)Marham, United Kingdom (3482): reduced air pressure: 23.05.2020 14:00:00 - 29.05.2020 14:00:00 (BST)Marham, United Kingdom (3482): visibility: 23.05.2020 14:00:00 - 29.05.2020 14:00:00 (BST)Marham, United Kingdom (3482): precipitation: 23.05.2020 14:00:00 - 29.05.2020 14:00:00 (BST)
Date & Time tt [°C] td [°C] tt -20cm [°C] tt -100cm [°C] ff [km/h] ff [kn] fx [km/h] fx [kn] dd ppp [hPa] vv [km] rr [mm]
29.05.2020 14:00:00 21,0 2,7 - - 16 9 - - E 1028,4 10 -
29.05.2020 13:00:00 20,9 3,0 - - 16 9 - - ESE 1029,0 20 0,0
29.05.2020 12:00:00 19,9 2,5 - - 16 9 - - E 1029,7 10 0,0
29.05.2020 11:00:00 19,1 4,3 - - 16 9 - - ESE 1030,1 10 0,0
29.05.2020 10:00:00 17,6 4,6 15,0 13,0 15 8 - - E 1030,4 25 0,0
29.05.2020 09:00:00 16,4 4,6 - - 13 7 - - ESE 1030,5 10 0,0
29.05.2020 08:00:00 14,1 8,1 - - 13 7 - - ESE 1030,7 10 0,0
29.05.2020 07:00:00 12,2 8,9 - - 11 6 - - E 1030,9 10 0,0
29.05.2020 06:00:00 8,9 7,8 - - 5 3 - - E 1031,1 10 0,0
29.05.2020 05:00:00 6,2 4,8 - - 5 3 - - ENE 1031,1 10 0,0
29.05.2020 04:00:00 6,0 4,0 - - 4 2 - - NNE 1031,3 10 0,0
29.05.2020 03:00:00 7,5 4,4 - - 5 3 - - E 1031,4 10 0,0
29.05.2020 02:00:00 8,7 4,6 - - 9 5 - - ESE 1031,6 10 0,0
29.05.2020 01:00:00 10,1 5,0 - - 4 2 - - ESE 1031,8 10 0,0
29.05.2020 00:00:00 10,5 4,5 - - 9 5 - - ESE 1032,1 10 0,0
28.05.2020 23:00:00 11,9 4,8 - - 4 2 - - ESE 1032,4 10 0,0
28.05.2020 22:00:00 13,5 4,5 - - 13 7 - - ESE 1032,5 20 0,0
28.05.2020 21:00:00 15,3 4,6 - - 15 8 - - ESE 1032,4 10 0,0
28.05.2020 20:00:00 17,3 4,9 - - 18 10 - - ESE 1032,1 10 0,0
28.05.2020 19:00:00 19,5 5,5 - - 21 11 - - ESE 1032,0 10 0,0
28.05.2020 18:00:00 20,4 4,9 - - 16 9 - - SE 1032,2 10 0,0
28.05.2020 17:00:00 21,2 4,8 - - 11 6 - - SE 1032,4 10 0,0
28.05.2020 16:00:00 21,3 4,6 - - 13 7 - - S 1033,0 10 0,0
28.05.2020 15:00:00 21,1 4,2 - - 13 7 - - E 1033,5 10 0,0
28.05.2020 14:00:00 20,4 4,9 - - 11 6 - - SE 1034,1 10 0,0
28.05.2020 13:00:00 19,4 5,0 - - 11 6 - - SSE 1034,5 10 0,0
28.05.2020 12:00:00 18,8 6,2 - - 9 5 - - SE 1035,2 10 0,0
28.05.2020 11:00:00 17,4 5,2 - - 11 6 - - ESE 1035,7 20 0,0
28.05.2020 10:00:00 15,9 6,2 14,9 13,0 16 9 - - SSE 1036,2 10 0,0
28.05.2020 09:00:00 15,0 7,0 - - 16 9 - - SE 1036,6 10 0,0
28.05.2020 08:00:00 13,4 8,9 - - 11 6 - - SE 1037,0 10 0,0
28.05.2020 07:00:00 9,4 9,2 - - 4 2 - - N 1037,0 7 0,0
28.05.2020 06:00:00 6,5 6,2 - - 8 4 - - NNE 1037,0 7 0,0
28.05.2020 05:00:00 6,0 5,6 - - 8 4 - - NNE 1036,8 0,9 0,0
28.05.2020 04:00:00 6,7 6,0 - - 5 3 - - NNE 1036,9 0,9 0,0
28.05.2020 03:00:00 8,1 7,2 - - 2 1 - - ENE 1037,1 9 0,0
28.05.2020 02:00:00 9,0 7,8 - - 9 5 - - E 1037,1 10 0,0
28.05.2020 01:00:00 9,5 8,7 - - 9 5 - - ENE 1037,2 10 0,0
28.05.2020 00:00:00 9,8 8,3 - - 5 3 - - ENE 1037,3 10 0,0
27.05.2020 23:00:00 11,3 8,9 - - 8 4 - - NE 1037,4 10 0,0
27.05.2020 22:00:00 12,9 8,0 - - 9 5 - - ENE 1037,1 10 0,0
27.05.2020 21:00:00 14,4 9,1 - - 13 7 - - ENE 1036,6 10 0,0
27.05.2020 20:00:00 16,3 9,6 - - 16 9 - - ENE 1036,1 10 0,0
27.05.2020 19:00:00 17,9 10,4 - - 15 8 - - ENE 1035,6 10 0,0
27.05.2020 18:00:00 19,7 9,4 - - 22 12 - - NNE 1035,3 10 0,0
27.05.2020 17:00:00 20,4 8,9 - - 22 12 - - NNE 1035,0 10 0,0
27.05.2020 16:00:00 21,4 10,7 - - 9 5 - - N 1035,0 10 0,0
27.05.2020 15:00:00 21,3 11,0 - - 8 4 - - NNW 1035,0 10 0,0
27.05.2020 14:00:00 20,7 10,3 - - 5 3 - - NW 1035,5 15 0,0
27.05.2020 13:00:00 20,6 11,5 - - 11 6 - - WNW 1035,8 10 0,0
27.05.2020 12:00:00 19,9 11,7 - - 9 5 - - W 1035,9 15 0,0
27.05.2020 11:00:00 19,1 10,5 - - 8 4 - - WSW 1036,3 10 0,0
27.05.2020 10:00:00 18,0 10,0 15,0 12,7 5 3 - - SSW 1036,3 18 0,0
27.05.2020 09:00:00 17,7 9,7 - - 5 3 - - S 1036,3 18 0,0
27.05.2020 08:00:00 15,9 8,4 - - 8 4 - - SSE 1036,3 10 0,0
27.05.2020 07:00:00 14,7 8,6 - - 5 3 - - SE 1036,1 10 0,0
27.05.2020 06:00:00 13,8 8,7 - - 5 3 - - SE 1035,9 10 0,0
27.05.2020 05:00:00 13,3 9,2 - - 2 1 - - NNE 1036,0 15 0,0
27.05.2020 04:00:00 13,7 7,4 - - 4 2 - - WNW 1036,1 10 0,0
27.05.2020 03:00:00 13,9 7,7 - - 8 4 - - SE 1036,1 18 0,0
27.05.2020 02:00:00 14,2 8,7 - - 8 4 - - SE 1036,4 14 0,0
27.05.2020 01:00:00 12,5 8,9 - - 4 2 - - ESE 1036,5 11 0,0
27.05.2020 00:00:00 13,9 8,7 - - 4 2 - - ESE 1036,4 10 0,0
26.05.2020 23:00:00 15,6 9,8 - - 8 4 - - ESE 1036,2 12 0,0
26.05.2020 22:00:00 16,5 10,2 - - 8 4 - - E 1036,2 10 0,0
26.05.2020 21:00:00 17,2 10,4 - - 11 6 - - E 1035,8 10 0,0
26.05.2020 20:00:00 19,1 11,0 - - 15 8 - - ENE 1035,5 10 0,0
26.05.2020 19:00:00 20,9 10,9 - - 15 8 - - NNE 1035,1 10 0,0
26.05.2020 18:00:00 22,1 10,3 - - 16 9 - - NNE 1035,1 20 0,0
26.05.2020 17:00:00 23,3 8,8 - - 8 4 - - NNW 1034,9 10 0,0
26.05.2020 16:00:00 23,1 8,4 - - 8 4 - - WNW 1035,3 10 0,0
26.05.2020 15:00:00 21,8 7,3 - - 11 6 - - NNW 1035,5 10 0,0
26.05.2020 14:00:00 21,6 6,7 - - 9 5 - - NNW 1035,6 10 0,0
26.05.2020 13:00:00 21,1 7,5 - - 11 6 - - WNW 1035,7 10 0,0
26.05.2020 12:00:00 19,5 6,9 - - 8 4 - - NNW 1035,8 10 0,0
26.05.2020 11:00:00 19,2 3,3 - - 15 8 - - W 1035,8 20 0,0
26.05.2020 10:00:00 18,7 6,9 14,4 12,7 15 8 - - W 1035,8 10 0,0
26.05.2020 09:00:00 17,1 7,5 - - 13 7 - - NW 1035,9 10 0,0
26.05.2020 08:00:00 14,9 8,9 - - 8 4 - - WSW 1035,7 20 0,0
26.05.2020 07:00:00 11,8 8,2 - - 5 3 - - S 1035,3 10 0,0
26.05.2020 06:00:00 10,1 8,1 - - 2 1 - - ESE 1035,1 10 0,0
26.05.2020 05:00:00 8,9 4,6 - - 4 2 - - SSE 1034,9 20 0,0
26.05.2020 04:00:00 10,3 6,0 - - 2 1 - - W 1034,7 23 0,0
26.05.2020 03:00:00 11,1 7,4 - - 4 2 - - ENE 1034,5 16 0,0
26.05.2020 02:00:00 11,3 7,7 - - 2 1 - - W 1034,3 15 0,0
26.05.2020 01:00:00 13,1 8,6 - - 5 3 - - S 1034,2 10 0,0
26.05.2020 00:00:00 12,3 6,0 - - 5 3 - - SSE 1034,0 10 0,0
25.05.2020 23:00:00 15,3 5,8 - - 9 5 - - SE 1033,7 19 0,0
25.05.2020 22:00:00 16,4 5,3 - - 9 5 - - W 1033,6 22 0,0
25.05.2020 21:00:00 17,6 5,2 - - 9 5 - - W 1033,3 23 0,0
25.05.2020 20:00:00 20,3 5,0 - - 13 7 - - W 1032,8 22 0,0
25.05.2020 19:00:00 22,9 3,1 - - 16 9 - - WSW 1032,7 24 0,0
25.05.2020 18:00:00 23,9 4,8 - - 16 9 - - SW 1032,8 24 0,0
25.05.2020 17:00:00 23,9 5,0 - - 16 9 - - WSW 1033,0 22 0,0
25.05.2020 16:00:00 24,2 5,8 - - 21 11 - - W 1033,1 23 0,0
25.05.2020 15:00:00 24,1 7,1 - - 16 9 - - SW 1033,5 22 0,0
25.05.2020 14:00:00 22,9 6,7 - - 16 9 - - SW 1033,8 10 0,0
25.05.2020 13:00:00 21,9 8,0 - - 15 8 - - SW 1034,1 19 0,0
25.05.2020 12:00:00 21,2 9,4 - - 13 7 - - SSW 1034,4 20 0,0
25.05.2020 11:00:00 19,0 8,7 - - 15 8 - - SW 1034,5 20 0,0
25.05.2020 10:00:00 18,1 9,4 13,7 12,7 9 5 - - SW 1034,9 10 0,0
25.05.2020 09:00:00 16,6 10,2 - - 4 2 - - SW 1035,1 15 0,0
25.05.2020 08:00:00 13,6 10,2 - - 4 2 - - S 1035,1 15 0,0
25.05.2020 07:00:00 9,9 9,1 - - 2 1 - - SSW 1034,8 13 0,0
25.05.2020 06:00:00 7,2 6,7 - - 2 1 - - SSW 1034,7 10 0,0
25.05.2020 05:00:00 6,3 5,7 - - 2 1 - - E 1034,3 12 0,0
25.05.2020 04:00:00 6,2 5,1 - - 2 1 - - S 1034,0 16 0,0
25.05.2020 03:00:00 7,3 6,2 - - 2 1 - - S 1033,8 14 0,0
25.05.2020 02:00:00 8,8 7,6 - - 2 1 - - E 1033,6 16 0,0
25.05.2020 01:00:00 9,0 7,1 - - 2 1 - - SSW 1033,5 10 0,0
25.05.2020 00:00:00 9,7 7,6 - - 2 1 - - SSE 1033,2 19 0,0
24.05.2020 23:00:00 12,0 8,6 - - 2 1 - - SW 1032,8 19 0,0
24.05.2020 22:00:00 13,6 8,7 - - 5 3 - - E 1032,4 10 0,0
24.05.2020 21:00:00 14,7 8,4 - - 9 5 - - N 1031,9 22 0,0
24.05.2020 20:00:00 17,5 8,9 - - 18 10 - - NW 1031,3 28 0,0
24.05.2020 19:00:00 18,6 8,8 - - 22 12 - - WNW 1030,7 25 0,0
24.05.2020 18:00:00 19,2 8,9 - - 28 15 - - WNW 1030,5 27 0,0
24.05.2020 17:00:00 18,5 9,2 - - 28 15 - - WNW 1030,3 10 0,0
24.05.2020 16:00:00 19,0 9,2 - - 28 15 - - WNW 1029,9 10 0,0
24.05.2020 15:00:00 18,0 9,0 - - 29 16 - - WNW 1029,9 27 0,0
24.05.2020 14:00:00 17,8 9,1 - - 34 18 46 25 W 1029,3 28 0,0
24.05.2020 13:00:00 17,2 9,0 - - 35 19 46 25 W 1028,9 28 0,0
24.05.2020 12:00:00 16,9 9,0 - - 31 17 48 26 W 1028,2 29 0,0
24.05.2020 11:00:00 17,1 8,8 - - 35 19 52 28 W 1027,6 10 0,0
24.05.2020 10:00:00 16,2 9,4 13,9 12,5 35 19 46 25 W 1027,1 25 0,0
24.05.2020 09:00:00 14,9 9,4 - - 29 16 - - W 1026,9 23 0,0
24.05.2020 08:00:00 13,8 8,9 - - 29 16 - - W 1026,4 21 0,0
24.05.2020 07:00:00 13,0 8,6 - - 29 16 - - W 1025,7 10 0,0
24.05.2020 06:00:00 12,2 8,0 - - 29 16 - - WSW 1025,1 20 0,0
24.05.2020 05:00:00 11,5 7,4 - - 28 15 - - WSW 1024,6 10 0,0
24.05.2020 04:00:00 11,4 7,2 - - 24 13 - - WSW 1024,7 20 0,0
24.05.2020 03:00:00 11,3 6,9 - - 26 14 - - SW 1024,4 20 0,0
24.05.2020 02:00:00 10,6 6,6 - - 28 15 - - SW 1024,0 10 0,0
24.05.2020 01:00:00 11,6 6,8 - - 28 15 46 25 SW 1024,1 21 0,0
24.05.2020 00:00:00 12,3 6,9 - - 35 19 50 27 WSW 1023,9 22 0,0
23.05.2020 23:00:00 12,3 6,2 - - 34 18 46 25 WSW 1023,1 25 0,0
23.05.2020 22:00:00 12,6 6,5 - - 29 16 46 25 WSW 1022,8 26 0,0
23.05.2020 21:00:00 12,8 5,9 - - 22 12 - - WSW 1022,3 27 0,0
23.05.2020 20:00:00 14,7 5,8 - - 37 20 50 27 WSW 1021,6 28 0,0
23.05.2020 19:00:00 16,3 5,3 - - 28 15 59 32 WSW 1021,0 30 0,0
23.05.2020 18:00:00 16,7 3,5 - - 35 19 63 34 W 1020,4 30 0,0
23.05.2020 17:00:00 17,3 3,6 - - 35 19 63 34 WSW 1019,8 30 0,0
23.05.2020 16:00:00 17,7 3,8 - - 42 23 65 35 W 1019,0 30 0,0
23.05.2020 15:00:00 18,6 4,1 - - 46 25 65 35 WSW 1018,4 30 0,0
23.05.2020 14:00:00 19,2 4,9 - - 44 24 59 32 WSW 1018,3 30 0,0

tt = temperature
td = dewpoint
tt -20cm = temperature -20cm
tt -100cm = temperature -100cm
ff = wind speed
fx = gusts
dd = wind direction
ppp = reduced air pressure
vv = visibility
rr = precipitation

Next stations